Location: Amsterdam
(30.7274°N, 84.4357°W)
Time: 03:05:24
(UTC+00:00)

Courier 1B Rocket - Pass Details

Date: 11 February 2026
Orbit: 920 x 1201 km, 28.2° (Epoch: 13 March)

Event Time Altitude Azimuth Distance (km) Brightness Sun altitude
Rises 05:19:41 0° 264° (W) 3,763 - -71.7°
Reaches altitude 10° 05:22:18 10° 263° (W) 2,852 - -71.9°
Maximum altitude 05:29:19 74° 179° (S) 1,142 - -72.5°
Drops below altitude 10° 05:36:51 10° 96° (E) 3,053 - -72.9°
Sets 05:39:44 0° 94° (E) 4,043 - -73.0°
